owner,sensor,date,latitude,longitude,air_temperature,qcFlag 
WAVCIS,ioos:station:WAVCIS:CSI09:1,2009-02-01T00:00:00Z,29.1015,-89.9782,14.48,11111222 
WAVCIS,ioos:station:WAVCIS:CSI09:1,2009-02-01T01:00:00Z,29.1015,-89.9782,14.49,11111222 
WAVCIS,ioos:station:WAVCIS:CSI09:1,2009-02-01T02:00:00Z,29.1015,-89.9782,14.45,11111222 
WAVCIS,ioos:station:WAVCIS:CSI09:1,2009-02-01T03:00:00Z,29.1015,-89.9782,14.41,11111222 
WAVCIS,ioos:station:WAVCIS:CSI09:1,2009-02-01T04:00:00Z,29.1015,-89.9782,14.36,11111222 
WAVCIS,ioos:station:WAVCIS:CSI09:1,2009-02-01T05:00:00Z,29.1015,-89.9782,14.7,11111222 
WAVCIS,ioos:station:WAVCIS:CSI09:1,2009-02-01T06:00:00Z,29.1015,-89.9782,14.33,11111222 
WAVCIS,ioos:station:WAVCIS:CSI09:1,2009-02-01T07:00:00Z,29.1015,-89.9782,14.34,11111222 
WAVCIS,ioos:station:WAVCIS:CSI09:1,2009-02-01T08:00:00Z,29.1015,-89.9782,14.36,11111222 
WAVCIS,ioos:station:WAVCIS:CSI09:1,2009-02-01T09:00:00Z,29.1015,-89.9782,14.5,11111222 
WAVCIS,ioos:station:WAVCIS:CSI09:1,2009-02-01T10:00:00Z,29.1015,-89.9782,14.51,11111222 
WAVCIS,ioos:station:WAVCIS:CSI09:1,2009-02-01T11:00:00Z,29.1015,-89.9782,14.37,11111222 
WAVCIS,ioos:station:WAVCIS:CSI09:1,2009-02-01T12:00:00Z,29.1015,-89.9782,14.42,11111222 
WAVCIS,ioos:station:WAVCIS:CSI09:1,2009-02-01T13:00:00Z,29.1015,-89.9782,14.53,11111222 
WAVCIS,ioos:station:WAVCIS:CSI09:1,2009-02-01T14:00:00Z,29.1015,-89.9782,14.64,11111222 
WAVCIS,ioos:station:WAVCIS:CSI09:1,2009-02-01T15:00:00Z,29.1015,-89.9782,14.88,11111222 
WAVCIS,ioos:station:WAVCIS:CSI09:1,2009-02-01T16:00:00Z,29.1015,-89.9782,15.71,11111222 
WAVCIS,ioos:station:WAVCIS:CSI09:1,2009-02-01T17:00:00Z,29.1015,-89.9782,16.0,11111222 
WAVCIS,ioos:station:WAVCIS:CSI09:1,2009-02-01T18:00:00Z,29.1015,-89.9782,16.29,11111222 
WAVCIS,ioos:station:WAVCIS:CSI09:1,2009-02-01T19:00:00Z,29.1015,-89.9782,16.52,11111222 
WAVCIS,ioos:station:WAVCIS:CSI09:1,2009-02-01T20:00:00Z,29.1015,-89.9782,16.64,11111222 
WAVCIS,ioos:station:WAVCIS:CSI09:1,2009-02-01T21:00:00Z,29.1015,-89.9782,16.57,11111222 
WAVCIS,ioos:station:WAVCIS:CSI09:1,2009-02-01T22:00:00Z,29.1015,-89.9782,16.44,11111222 
WAVCIS,ioos:station:WAVCIS:CSI09:1,2009-02-01T23:00:00Z,29.1015,-89.9782,16.72,11111222 
WAVCIS,ioos:station:WAVCIS:CSI09:1,2009-02-02T00:00:00Z,29.1015,-89.9782,16.06,11111222 
WAVCIS,ioos:station:WAVCIS:CSI09:1,2009-02-02T01:00:00Z,29.1015,-89.9782,15.89,11111222 
WAVCIS,ioos:station:WAVCIS:CSI09:1,2009-02-02T02:00:00Z,29.1015,-89.9782,15.42,11111222 
WAVCIS,ioos:station:WAVCIS:CSI09:1,2009-02-02T03:00:00Z,29.1015,-89.9782,15.37,11111222 
WAVCIS,ioos:station:WAVCIS:CSI09:1,2009-02-02T04:00:00Z,29.1015,-89.9782,15.25,11111222 
WAVCIS,ioos:station:WAVCIS:CSI09:1,2009-02-02T05:00:00Z,29.1015,-89.9782,15.32,11111222 
WAVCIS,ioos:station:WAVCIS:CSI09:1,2009-02-02T06:00:00Z,29.1015,-89.9782,15.46,11111222 
WAVCIS,ioos:station:WAVCIS:CSI09:1,2009-02-02T07:00:00Z,29.1015,-89.9782,15.85,11111222 
WAVCIS,ioos:station:WAVCIS:CSI09:1,2009-02-02T08:00:00Z,29.1015,-89.9782,16.08,11111222 
WAVCIS,ioos:station:WAVCIS:CSI09:1,2009-02-02T09:00:00Z,29.1015,-89.9782,16.28,11111222 
WAVCIS,ioos:station:WAVCIS:CSI09:1,2009-02-02T10:00:00Z,29.1015,-89.9782,16.48,11111222 
WAVCIS,ioos:station:WAVCIS:CSI09:1,2009-02-02T11:00:00Z,29.1015,-89.9782,16.88,11111222 
WAVCIS,ioos:station:WAVCIS:CSI09:1,2009-02-02T12:00:00Z,29.1015,-89.9782,15.09,11111222 
WAVCIS,ioos:station:WAVCIS:CSI09:1,2009-02-02T13:00:00Z,29.1015,-89.9782,14.99,11111222 
WAVCIS,ioos:station:WAVCIS:CSI09:1,2009-02-02T14:00:00Z,29.1015,-89.9782,15.63,11111222 
WAVCIS,ioos:station:WAVCIS:CSI09:1,2009-02-02T15:00:00Z,29.1015,-89.9782,15.86,11111222 
WAVCIS,ioos:station:WAVCIS:CSI09:1,2009-02-02T16:00:00Z,29.1015,-89.9782,15.62,11111222 
WAVCIS,ioos:station:WAVCIS:CSI09:1,2009-02-02T17:00:00Z,29.1015,-89.9782,15.32,11111222 
WAVCIS,ioos:station:WAVCIS:CSI09:1,2009-02-02T18:00:00Z,29.1015,-89.9782,12.48,11111222 
WAVCIS,ioos:station:WAVCIS:CSI09:1,2009-02-02T19:00:00Z,29.1015,-89.9782,14.06,11111222 
WAVCIS,ioos:station:WAVCIS:CSI09:1,2009-02-02T20:00:00Z,29.1015,-89.9782,14.44,11111222 
WAVCIS,ioos:station:WAVCIS:CSI09:1,2009-02-02T21:00:00Z,29.1015,-89.9782,14.01,11111222 
WAVCIS,ioos:station:WAVCIS:CSI09:1,2009-02-02T22:00:00Z,29.1015,-89.9782,12.08,11111222 
WAVCIS,ioos:station:WAVCIS:CSI09:1,2009-02-02T23:00:00Z,29.1015,-89.9782,10.81,11111222 
WAVCIS,ioos:station:WAVCIS:CSI09:1,2009-02-03T00:00:00Z,29.1015,-89.9782,12.5,11111222 
WAVCIS,ioos:station:WAVCIS:CSI09:1,2009-02-03T01:00:00Z,29.1015,-89.9782,12.88,11111222 
WAVCIS,ioos:station:WAVCIS:CSI09:1,2009-02-03T02:00:00Z,29.1015,-89.9782,12.72,11111222 
WAVCIS,ioos:station:WAVCIS:CSI09:1,2009-02-03T03:00:00Z,29.1015,-89.9782,11.52,11111222 
WAVCIS,ioos:station:WAVCIS:CSI09:1,2009-02-03T04:00:00Z,29.1015,-89.9782,10.79,11111222 
WAVCIS,ioos:station:WAVCIS:CSI09:1,2009-02-03T05:00:00Z,29.1015,-89.9782,9.92,11111222 
WAVCIS,ioos:station:WAVCIS:CSI09:1,2009-02-03T06:00:00Z,29.1015,-89.9782,9.08,11111222 
WAVCIS,ioos:station:WAVCIS:CSI09:1,2009-02-03T07:00:00Z,29.1015,-89.9782,8.72,11111222 
WAVCIS,ioos:station:WAVCIS:CSI09:1,2009-02-03T08:00:00Z,29.1015,-89.9782,8.25,11111222 
WAVCIS,ioos:station:WAVCIS:CSI09:1,2009-02-03T09:00:00Z,29.1015,-89.9782,8.24,11111222 
WAVCIS,ioos:station:WAVCIS:CSI09:1,2009-02-03T10:00:00Z,29.1015,-89.9782,8.19,11111222 
WAVCIS,ioos:station:WAVCIS:CSI09:1,2009-02-03T11:00:00Z,29.1015,-89.9782,7.86,11111222 
WAVCIS,ioos:station:WAVCIS:CSI09:1,2009-02-03T12:00:00Z,29.1015,-89.9782,7.38,11111222 
WAVCIS,ioos:station:WAVCIS:CSI09:1,2009-02-03T13:00:00Z,29.1015,-89.9782,7.29,11111222 
WAVCIS,ioos:station:WAVCIS:CSI09:1,2009-02-03T14:00:00Z,29.1015,-89.9782,6.44,11111222 
WAVCIS,ioos:station:WAVCIS:CSI09:1,2009-02-03T15:00:00Z,29.1015,-89.9782,8.39,11111222 
WAVCIS,ioos:station:WAVCIS:CSI09:1,2009-02-03T16:00:00Z,29.1015,-89.9782,9.04,11111222 
WAVCIS,ioos:station:WAVCIS:CSI09:1,2009-02-03T17:00:00Z,29.1015,-89.9782,10.04,11111222 
WAVCIS,ioos:station:WAVCIS:CSI09:1,2009-02-03T18:00:00Z,29.1015,-89.9782,10.84,11111222 
WAVCIS,ioos:station:WAVCIS:CSI09:1,2009-02-03T19:00:00Z,29.1015,-89.9782,10.36,11111222 
WAVCIS,ioos:station:WAVCIS:CSI09:1,2009-02-03T20:00:00Z,29.1015,-89.9782,10.67,11111222 
WAVCIS,ioos:station:WAVCIS:CSI09:1,2009-02-03T21:00:00Z,29.1015,-89.9782,11.14,11111222 
WAVCIS,ioos:station:WAVCIS:CSI09:1,2009-02-03T22:00:00Z,29.1015,-89.9782,11.55,11111222 
WAVCIS,ioos:station:WAVCIS:CSI09:1,2009-02-03T23:00:00Z,29.1015,-89.9782,12.11,11111222 
WAVCIS,ioos:station:WAVCIS:CSI09:1,2009-02-04T00:00:00Z,29.1015,-89.9782,12.36,11111222 
WAVCIS,ioos:station:WAVCIS:CSI09:1,2009-02-04T01:00:00Z,29.1015,-89.9782,12.05,11111222 
WAVCIS,ioos:station:WAVCIS:CSI09:1,2009-02-04T02:00:00Z,29.1015,-89.9782,12.09,11111222 
WAVCIS,ioos:station:WAVCIS:CSI09:1,2009-02-04T03:00:00Z,29.1015,-89.9782,12.35,11111222 
WAVCIS,ioos:station:WAVCIS:CSI09:1,2009-02-04T04:00:00Z,29.1015,-89.9782,12.54,11111222 
WAVCIS,ioos:station:WAVCIS:CSI09:1,2009-02-04T05:00:00Z,29.1015,-89.9782,12.71,11111222 
WAVCIS,ioos:station:WAVCIS:CSI09:1,2009-02-04T06:00:00Z,29.1015,-89.9782,12.48,11111222 
WAVCIS,ioos:station:WAVCIS:CSI09:1,2009-02-04T07:00:00Z,29.1015,-89.9782,11.36,11111222 
WAVCIS,ioos:station:WAVCIS:CSI09:1,2009-02-04T08:00:00Z,29.1015,-89.9782,11.12,11111222 
WAVCIS,ioos:station:WAVCIS:CSI09:1,2009-02-04T09:00:00Z,29.1015,-89.9782,10.59,11111222 
WAVCIS,ioos:station:WAVCIS:CSI09:1,2009-02-04T10:00:00Z,29.1015,-89.9782,9.22,11111222 
WAVCIS,ioos:station:WAVCIS:CSI09:1,2009-02-04T11:00:00Z,29.1015,-89.9782,7.1,11111222 
WAVCIS,ioos:station:WAVCIS:CSI09:1,2009-02-04T12:00:00Z,29.1015,-89.9782,5.993,11111222 
WAVCIS,ioos:station:WAVCIS:CSI09:1,2009-02-04T13:00:00Z,29.1015,-89.9782,5.026,11111222 
WAVCIS,ioos:station:WAVCIS:CSI09:1,2009-02-04T14:00:00Z,29.1015,-89.9782,4.458,11111222 
WAVCIS,ioos:station:WAVCIS:CSI09:1,2009-02-04T15:00:00Z,29.1015,-89.9782,3.8,11111222 
WAVCIS,ioos:station:WAVCIS:CSI09:1,2009-02-04T16:00:00Z,29.1015,-89.9782,3.468,11111222 
WAVCIS,ioos:station:WAVCIS:CSI09:1,2009-02-04T17:00:00Z,29.1015,-89.9782,3.603,11111222 
WAVCIS,ioos:station:WAVCIS:CSI09:1,2009-02-04T18:00:00Z,29.1015,-89.9782,3.769,11111222 
WAVCIS,ioos:station:WAVCIS:CSI09:1,2009-02-04T19:00:00Z,29.1015,-89.9782,4.233,11111222 
WAVCIS,ioos:station:WAVCIS:CSI09:1,2009-02-04T20:00:00Z,29.1015,-89.9782,5.022,11111222 
WAVCIS,ioos:station:WAVCIS:CSI09:1,2009-02-04T21:00:00Z,29.1015,-89.9782,5.467,11111222 
WAVCIS,ioos:station:WAVCIS:CSI09:1,2009-02-04T22:00:00Z,29.1015,-89.9782,6.28,11111222 
WAVCIS,ioos:station:WAVCIS:CSI09:1,2009-02-04T23:00:00Z,29.1015,-89.9782,6.69,11111222 
WAVCIS,ioos:station:WAVCIS:CSI09:1,2009-02-05T00:00:00Z,29.1015,-89.9782,6.5,11111222 
WAVCIS,ioos:station:WAVCIS:CSI09:1,2009-02-05T01:00:00Z,29.1015,-89.9782,6.72,11111222 
WAVCIS,ioos:station:WAVCIS:CSI09:1,2009-02-05T02:00:00Z,29.1015,-89.9782,6.74,11111222 
WAVCIS,ioos:station:WAVCIS:CSI09:1,2009-02-05T03:00:00Z,29.1015,-89.9782,6.96,11111222 
WAVCIS,ioos:station:WAVCIS:CSI09:1,2009-02-05T04:00:00Z,29.1015,-89.9782,7.4,11111222 
WAVCIS,ioos:station:WAVCIS:CSI09:1,2009-02-05T05:00:00Z,29.1015,-89.9782,7.32,11111222 
WAVCIS,ioos:station:WAVCIS:CSI09:1,2009-02-05T06:00:00Z,29.1015,-89.9782,7.37,11111222 
WAVCIS,ioos:station:WAVCIS:CSI09:1,2009-02-05T07:00:00Z,29.1015,-89.9782,7.26,11111222 
WAVCIS,ioos:station:WAVCIS:CSI09:1,2009-02-05T08:00:00Z,29.1015,-89.9782,7.29,11111222 
WAVCIS,ioos:station:WAVCIS:CSI09:1,2009-02-05T09:00:00Z,29.1015,-89.9782,7.31,11111222 
WAVCIS,ioos:station:WAVCIS:CSI09:1,2009-02-05T10:00:00Z,29.1015,-89.9782,7.27,11111222 
WAVCIS,ioos:station:WAVCIS:CSI09:1,2009-02-05T11:00:00Z,29.1015,-89.9782,7.21,11111222 
WAVCIS,ioos:station:WAVCIS:CSI09:1,2009-02-05T12:00:00Z,29.1015,-89.9782,7.55,11111222 
WAVCIS,ioos:station:WAVCIS:CSI09:1,2009-02-05T13:00:00Z,29.1015,-89.9782,7.88,11111222 
WAVCIS,ioos:station:WAVCIS:CSI09:1,2009-02-05T14:00:00Z,29.1015,-89.9782,8.34,11111222 
WAVCIS,ioos:station:WAVCIS:CSI09:1,2009-02-05T15:00:00Z,29.1015,-89.9782,8.51,11111222 
WAVCIS,ioos:station:WAVCIS:CSI09:1,2009-02-05T16:00:00Z,29.1015,-89.9782,8.82,11111222 
WAVCIS,ioos:station:WAVCIS:CSI09:1,2009-02-05T17:00:00Z,29.1015,-89.9782,9.44,11111222 
WAVCIS,ioos:station:WAVCIS:CSI09:1,2009-02-05T18:00:00Z,29.1015,-89.9782,9.61,11111222 
WAVCIS,ioos:station:WAVCIS:CSI09:1,2009-02-05T19:00:00Z,29.1015,-89.9782,10.07,11111222 
WAVCIS,ioos:station:WAVCIS:CSI09:1,2009-02-05T20:00:00Z,29.1015,-89.9782,10.66,11111222 
WAVCIS,ioos:station:WAVCIS:CSI09:1,2009-02-05T21:00:00Z,29.1015,-89.9782,11.03,11111222 
WAVCIS,ioos:station:WAVCIS:CSI09:1,2009-02-05T22:00:00Z,29.1015,-89.9782,11.39,11111222 
WAVCIS,ioos:station:WAVCIS:CSI09:1,2009-02-05T23:00:00Z,29.1015,-89.9782,11.53,11111222 
WAVCIS,ioos:station:WAVCIS:CSI09:1,2009-02-06T00:00:00Z,29.1015,-89.9782,11.29,11111222 
WAVCIS,ioos:station:WAVCIS:CSI09:1,2009-02-06T01:00:00Z,29.1015,-89.9782,11.69,11111222 
WAVCIS,ioos:station:WAVCIS:CSI09:1,2009-02-06T02:00:00Z,29.1015,-89.9782,11.9,11111222 
WAVCIS,ioos:station:WAVCIS:CSI09:1,2009-02-06T03:00:00Z,29.1015,-89.9782,12.3,11111222 
WAVCIS,ioos:station:WAVCIS:CSI09:1,2009-02-06T04:00:00Z,29.1015,-89.9782,13.12,11111222 
WAVCIS,ioos:station:WAVCIS:CSI09:1,2009-02-06T05:00:00Z,29.1015,-89.9782,13.52,11111222 
WAVCIS,ioos:station:WAVCIS:CSI09:1,2009-02-06T06:00:00Z,29.1015,-89.9782,14.05,11111222 
WAVCIS,ioos:station:WAVCIS:CSI09:1,2009-02-06T07:00:00Z,29.1015,-89.9782,14.27,11111222 
WAVCIS,ioos:station:WAVCIS:CSI09:1,2009-02-06T08:00:00Z,29.1015,-89.9782,14.45,11111222 
WAVCIS,ioos:station:WAVCIS:CSI09:1,2009-02-06T09:00:00Z,29.1015,-89.9782,14.56,11111222 
WAVCIS,ioos:station:WAVCIS:CSI09:1,2009-02-06T10:00:00Z,29.1015,-89.9782,14.76,11111222 
WAVCIS,ioos:station:WAVCIS:CSI09:1,2009-02-06T11:00:00Z,29.1015,-89.9782,14.95,11111222 
WAVCIS,ioos:station:WAVCIS:CSI09:1,2009-02-06T12:00:00Z,29.1015,-89.9782,15.19,11111222 
WAVCIS,ioos:station:WAVCIS:CSI09:1,2009-02-06T13:00:00Z,29.1015,-89.9782,15.46,11111222 
WAVCIS,ioos:station:WAVCIS:CSI09:1,2009-02-06T14:00:00Z,29.1015,-89.9782,15.68,11111222 
WAVCIS,ioos:station:WAVCIS:CSI09:1,2009-02-06T15:00:00Z,29.1015,-89.9782,15.85,11111222 
WAVCIS,ioos:station:WAVCIS:CSI09:1,2009-02-06T16:00:00Z,29.1015,-89.9782,15.7,11111222 
WAVCIS,ioos:station:WAVCIS:CSI09:1,2009-02-06T17:00:00Z,29.1015,-89.9782,15.44,11111222 
WAVCIS,ioos:station:WAVCIS:CSI09:1,2009-02-06T18:00:00Z,29.1015,-89.9782,15.61,11111222 
WAVCIS,ioos:station:WAVCIS:CSI09:1,2009-02-06T19:00:00Z,29.1015,-89.9782,15.75,11111222 
WAVCIS,ioos:station:WAVCIS:CSI09:1,2009-02-06T20:00:00Z,29.1015,-89.9782,15.9,11111222 
WAVCIS,ioos:station:WAVCIS:CSI09:1,2009-02-06T21:00:00Z,29.1015,-89.9782,16.09,11111222 
WAVCIS,ioos:station:WAVCIS:CSI09:1,2009-02-06T22:00:00Z,29.1015,-89.9782,16.27,11111222 
WAVCIS,ioos:station:WAVCIS:CSI09:1,2009-02-06T23:00:00Z,29.1015,-89.9782,16.18,11111222 
WAVCIS,ioos:station:WAVCIS:CSI09:1,2009-02-07T00:00:00Z,29.1015,-89.9782,15.74,11111222 
WAVCIS,ioos:station:WAVCIS:CSI09:1,2009-02-07T01:00:00Z,29.1015,-89.9782,15.67,11111222 
WAVCIS,ioos:station:WAVCIS:CSI09:1,2009-02-07T02:00:00Z,29.1015,-89.9782,15.68,11111222 
WAVCIS,ioos:station:WAVCIS:CSI09:1,2009-02-07T03:00:00Z,29.1015,-89.9782,15.67,11111222 
WAVCIS,ioos:station:WAVCIS:CSI09:1,2009-02-07T04:00:00Z,29.1015,-89.9782,16.01,11111222 
WAVCIS,ioos:station:WAVCIS:CSI09:1,2009-02-07T05:00:00Z,29.1015,-89.9782,16.35,11111222 
WAVCIS,ioos:station:WAVCIS:CSI09:1,2009-02-07T06:00:00Z,29.1015,-89.9782,16.3,11111222 
WAVCIS,ioos:station:WAVCIS:CSI09:1,2009-02-07T07:00:00Z,29.1015,-89.9782,16.55,11111222 
WAVCIS,ioos:station:WAVCIS:CSI09:1,2009-02-07T08:00:00Z,29.1015,-89.9782,17.24,11111222 
WAVCIS,ioos:station:WAVCIS:CSI09:1,2009-02-07T09:00:00Z,29.1015,-89.9782,17.34,11111222 
WAVCIS,ioos:station:WAVCIS:CSI09:1,2009-02-07T10:00:00Z,29.1015,-89.9782,17.19,11111222 
WAVCIS,ioos:station:WAVCIS:CSI09:1,2009-02-07T11:00:00Z,29.1015,-89.9782,17.29,11111222 
WAVCIS,ioos:station:WAVCIS:CSI09:1,2009-02-07T12:00:00Z,29.1015,-89.9782,17.4,11111222 
WAVCIS,ioos:station:WAVCIS:CSI09:1,2009-02-07T13:00:00Z,29.1015,-89.9782,17.98,11111222 
WAVCIS,ioos:station:WAVCIS:CSI09:1,2009-02-07T14:00:00Z,29.1015,-89.9782,18.11,11111222 
WAVCIS,ioos:station:WAVCIS:CSI09:1,2009-02-07T15:00:00Z,29.1015,-89.9782,19.3,11111222 
WAVCIS,ioos:station:WAVCIS:CSI09:1,2009-02-07T16:00:00Z,29.1015,-89.9782,18.66,11111222 
WAVCIS,ioos:station:WAVCIS:CSI09:1,2009-02-07T17:00:00Z,29.1015,-89.9782,18.81,11111222 
WAVCIS,ioos:station:WAVCIS:CSI09:1,2009-02-07T18:00:00Z,29.1015,-89.9782,18.87,11111222 
WAVCIS,ioos:station:WAVCIS:CSI09:1,2009-02-07T19:00:00Z,29.1015,-89.9782,18.54,11111222 
WAVCIS,ioos:station:WAVCIS:CSI09:1,2009-02-07T20:00:00Z,29.1015,-89.9782,18.09,11111222 
WAVCIS,ioos:station:WAVCIS:CSI09:1,2009-02-07T21:00:00Z,29.1015,-89.9782,18.06,11111222 
WAVCIS,ioos:station:WAVCIS:CSI09:1,2009-02-07T22:00:00Z,29.1015,-89.9782,18.6,11111222 
WAVCIS,ioos:station:WAVCIS:CSI09:1,2009-02-07T23:00:00Z,29.1015,-89.9782,18.48,11111222 
WAVCIS,ioos:station:WAVCIS:CSI09:1,2009-02-08T00:00:00Z,29.1015,-89.9782,17.65,11111222 
WAVCIS,ioos:station:WAVCIS:CSI09:1,2009-02-08T01:00:00Z,29.1015,-89.9782,17.53,11111222 
WAVCIS,ioos:station:WAVCIS:CSI09:1,2009-02-08T02:00:00Z,29.1015,-89.9782,17.88,11111222 
WAVCIS,ioos:station:WAVCIS:CSI09:1,2009-02-08T03:00:00Z,29.1015,-89.9782,17.41,11111222 
WAVCIS,ioos:station:WAVCIS:CSI09:1,2009-02-08T04:00:00Z,29.1015,-89.9782,17.76,11111222 
WAVCIS,ioos:station:WAVCIS:CSI09:1,2009-02-08T05:00:00Z,29.1015,-89.9782,17.65,11111222 
WAVCIS,ioos:station:WAVCIS:CSI09:1,2009-02-08T06:00:00Z,29.1015,-89.9782,17.48,11111222 
WAVCIS,ioos:station:WAVCIS:CSI09:1,2009-02-08T07:00:00Z,29.1015,-89.9782,17.19,11111222 
WAVCIS,ioos:station:WAVCIS:CSI09:1,2009-02-08T08:00:00Z,29.1015,-89.9782,17.13,11111222 
WAVCIS,ioos:station:WAVCIS:CSI09:1,2009-02-08T09:00:00Z,29.1015,-89.9782,17.15,11111222 
WAVCIS,ioos:station:WAVCIS:CSI09:1,2009-02-08T10:00:00Z,29.1015,-89.9782,17.15,11111222 
WAVCIS,ioos:station:WAVCIS:CSI09:1,2009-02-08T11:00:00Z,29.1015,-89.9782,17.24,11111222 
WAVCIS,ioos:station:WAVCIS:CSI09:1,2009-02-08T12:00:00Z,29.1015,-89.9782,17.11,11111222 
WAVCIS,ioos:station:WAVCIS:CSI09:1,2009-02-08T13:00:00Z,29.1015,-89.9782,17.22,11111222 
WAVCIS,ioos:station:WAVCIS:CSI09:1,2009-02-08T14:00:00Z,29.1015,-89.9782,17.53,11111222 
WAVCIS,ioos:station:WAVCIS:CSI09:1,2009-02-08T15:00:00Z,29.1015,-89.9782,18.08,11111222 
WAVCIS,ioos:station:WAVCIS:CSI09:1,2009-02-08T16:00:00Z,29.1015,-89.9782,18.04,11111222 
WAVCIS,ioos:station:WAVCIS:CSI09:1,2009-02-08T17:00:00Z,29.1015,-89.9782,17.99,11111222 
WAVCIS,ioos:station:WAVCIS:CSI09:1,2009-02-08T18:00:00Z,29.1015,-89.9782,17.96,11111222 
WAVCIS,ioos:station:WAVCIS:CSI09:1,2009-02-08T19:00:00Z,29.1015,-89.9782,17.9,11111222 
WAVCIS,ioos:station:WAVCIS:CSI09:1,2009-02-08T20:00:00Z,29.1015,-89.9782,18.02,11111222 
WAVCIS,ioos:station:WAVCIS:CSI09:1,2009-02-08T21:00:00Z,29.1015,-89.9782,18.22,11111222 
WAVCIS,ioos:station:WAVCIS:CSI09:1,2009-02-08T22:00:00Z,29.1015,-89.9782,18.21,11111222 
WAVCIS,ioos:station:WAVCIS:CSI09:1,2009-02-08T23:00:00Z,29.1015,-89.9782,17.56,11111222 
WAVCIS,ioos:station:WAVCIS:CSI09:1,2009-02-09T00:00:00Z,29.1015,-89.9782,16.82,11111222 
WAVCIS,ioos:station:WAVCIS:CSI09:1,2009-02-09T01:00:00Z,29.1015,-89.9782,16.84,11111222 
WAVCIS,ioos:station:WAVCIS:CSI09:1,2009-02-09T02:00:00Z,29.1015,-89.9782,16.94,11111222 
WAVCIS,ioos:station:WAVCIS:CSI09:1,2009-02-09T03:00:00Z,29.1015,-89.9782,17.01,11111222 
WAVCIS,ioos:station:WAVCIS:CSI09:1,2009-02-09T04:00:00Z,29.1015,-89.9782,17.49,11111222 
WAVCIS,ioos:station:WAVCIS:CSI09:1,2009-02-09T05:00:00Z,29.1015,-89.9782,17.63,11111222 
WAVCIS,ioos:station:WAVCIS:CSI09:1,2009-02-09T06:00:00Z,29.1015,-89.9782,17.41,11111222 
WAVCIS,ioos:station:WAVCIS:CSI09:1,2009-02-09T07:00:00Z,29.1015,-89.9782,17.33,11111222 
WAVCIS,ioos:station:WAVCIS:CSI09:1,2009-02-09T08:00:00Z,29.1015,-89.9782,17.03,11111222 
WAVCIS,ioos:station:WAVCIS:CSI09:1,2009-02-09T09:00:00Z,29.1015,-89.9782,17.27,11111222 
WAVCIS,ioos:station:WAVCIS:CSI09:1,2009-02-09T10:00:00Z,29.1015,-89.9782,17.42,11111222 
WAVCIS,ioos:station:WAVCIS:CSI09:1,2009-02-09T11:00:00Z,29.1015,-89.9782,17.34,11111222 
WAVCIS,ioos:station:WAVCIS:CSI09:1,2009-02-09T12:00:00Z,29.1015,-89.9782,18.25,11111222 
WAVCIS,ioos:station:WAVCIS:CSI09:1,2009-02-09T13:00:00Z,29.1015,-89.9782,18.53,11111222 
WAVCIS,ioos:station:WAVCIS:CSI09:1,2009-02-09T14:00:00Z,29.1015,-89.9782,18.7,11111222 
WAVCIS,ioos:station:WAVCIS:CSI09:1,2009-02-09T15:00:00Z,29.1015,-89.9782,18.88,11111222 
WAVCIS,ioos:station:WAVCIS:CSI09:1,2009-02-09T16:00:00Z,29.1015,-89.9782,18.72,11111222 
WAVCIS,ioos:station:WAVCIS:CSI09:1,2009-02-09T17:00:00Z,29.1015,-89.9782,19.87,11111222 
WAVCIS,ioos:station:WAVCIS:CSI09:1,2009-02-09T18:00:00Z,29.1015,-89.9782,19.45,11111222 
WAVCIS,ioos:station:WAVCIS:CSI09:1,2009-02-09T19:00:00Z,29.1015,-89.9782,18.66,11111222 
WAVCIS,ioos:station:WAVCIS:CSI09:1,2009-02-09T20:00:00Z,29.1015,-89.9782,18.72,11111222 
WAVCIS,ioos:station:WAVCIS:CSI09:1,2009-02-09T21:00:00Z,29.1015,-89.9782,18.74,11111222 
WAVCIS,ioos:station:WAVCIS:CSI09:1,2009-02-09T22:00:00Z,29.1015,-89.9782,18.01,11111222 
WAVCIS,ioos:station:WAVCIS:CSI09:1,2009-02-09T23:00:00Z,29.1015,-89.9782,17.98,11111222 
WAVCIS,ioos:station:WAVCIS:CSI09:1,2009-02-10T00:00:00Z,29.1015,-89.9782,17.5,11111222 
WAVCIS,ioos:station:WAVCIS:CSI09:1,2009-02-10T01:00:00Z,29.1015,-89.9782,18.1,11111222 
WAVCIS,ioos:station:WAVCIS:CSI09:1,2009-02-10T02:00:00Z,29.1015,-89.9782,17.85,11111222 
WAVCIS,ioos:station:WAVCIS:CSI09:1,2009-02-10T03:00:00Z,29.1015,-89.9782,17.06,11111222 
WAVCIS,ioos:station:WAVCIS:CSI09:1,2009-02-10T04:00:00Z,29.1015,-89.9782,17.33,11111222 
WAVCIS,ioos:station:WAVCIS:CSI09:1,2009-02-10T05:00:00Z,29.1015,-89.9782,17.87,11111222 
WAVCIS,ioos:station:WAVCIS:CSI09:1,2009-02-10T06:00:00Z,29.1015,-89.9782,18.18,11111222 
WAVCIS,ioos:station:WAVCIS:CSI09:1,2009-02-10T07:00:00Z,29.1015,-89.9782,17.74,11111222 
WAVCIS,ioos:station:WAVCIS:CSI09:1,2009-02-10T08:00:00Z,29.1015,-89.9782,17.86,11111222 
WAVCIS,ioos:station:WAVCIS:CSI09:1,2009-02-10T09:00:00Z,29.1015,-89.9782,18.6,11111222 
WAVCIS,ioos:station:WAVCIS:CSI09:1,2009-02-10T10:00:00Z,29.1015,-89.9782,19.12,11111222 
WAVCIS,ioos:station:WAVCIS:CSI09:1,2009-02-10T11:00:00Z,29.1015,-89.9782,19.15,11111222 
WAVCIS,ioos:station:WAVCIS:CSI09:1,2009-02-10T12:00:00Z,29.1015,-89.9782,19.91,11111222 
WAVCIS,ioos:station:WAVCIS:CSI09:1,2009-02-10T13:00:00Z,29.1015,-89.9782,19.74,11111222 
WAVCIS,ioos:station:WAVCIS:CSI09:1,2009-02-10T14:00:00Z,29.1015,-89.9782,19.57,11111222 
WAVCIS,ioos:station:WAVCIS:CSI09:1,2009-02-10T15:00:00Z,29.1015,-89.9782,19.83,11111222 
WAVCIS,ioos:station:WAVCIS:CSI09:1,2009-02-10T16:00:00Z,29.1015,-89.9782,19.55,11111222 
WAVCIS,ioos:station:WAVCIS:CSI09:1,2009-02-10T17:00:00Z,29.1015,-89.9782,20.63,11111222 
WAVCIS,ioos:station:WAVCIS:CSI09:1,2009-02-10T18:00:00Z,29.1015,-89.9782,19.95,11111222 
WAVCIS,ioos:station:WAVCIS:CSI09:1,2009-02-10T19:00:00Z,29.1015,-89.9782,19.62,11111222 
WAVCIS,ioos:station:WAVCIS:CSI09:1,2009-02-10T20:00:00Z,29.1015,-89.9782,19.95,11111222 
WAVCIS,ioos:station:WAVCIS:CSI09:1,2009-02-10T21:00:00Z,29.1015,-89.9782,19.98,11111222 
WAVCIS,ioos:station:WAVCIS:CSI09:1,2009-02-10T22:00:00Z,29.1015,-89.9782,19.67,11111222 
WAVCIS,ioos:station:WAVCIS:CSI09:1,2009-02-10T23:00:00Z,29.1015,-89.9782,20.05,11111222 
WAVCIS,ioos:station:WAVCIS:CSI09:1,2009-02-11T00:00:00Z,29.1015,-89.9782,19.77,11111222 
WAVCIS,ioos:station:WAVCIS:CSI09:1,2009-02-11T01:00:00Z,29.1015,-89.9782,19.75,11111222 
WAVCIS,ioos:station:WAVCIS:CSI09:1,2009-02-11T02:00:00Z,29.1015,-89.9782,19.59,11111222 
WAVCIS,ioos:station:WAVCIS:CSI09:1,2009-02-11T03:00:00Z,29.1015,-89.9782,19.72,11111222 
WAVCIS,ioos:station:WAVCIS:CSI09:1,2009-02-11T04:00:00Z,29.1015,-89.9782,19.87,11111222 
WAVCIS,ioos:station:WAVCIS:CSI09:1,2009-02-11T05:00:00Z,29.1015,-89.9782,19.91,11111222 
WAVCIS,ioos:station:WAVCIS:CSI09:1,2009-02-11T06:00:00Z,29.1015,-89.9782,19.87,11111222 
WAVCIS,ioos:station:WAVCIS:CSI09:1,2009-02-11T07:00:00Z,29.1015,-89.9782,19.77,11111222 
WAVCIS,ioos:station:WAVCIS:CSI09:1,2009-02-11T08:00:00Z,29.1015,-89.9782,20.1,11111222 
WAVCIS,ioos:station:WAVCIS:CSI09:1,2009-02-11T09:00:00Z,29.1015,-89.9782,20.61,11111222 
WAVCIS,ioos:station:WAVCIS:CSI09:1,2009-02-11T10:00:00Z,29.1015,-89.9782,20.41,11111222 
WAVCIS,ioos:station:WAVCIS:CSI09:1,2009-02-11T11:00:00Z,29.1015,-89.9782,20.78,11111222 
WAVCIS,ioos:station:WAVCIS:CSI09:1,2009-02-11T12:00:00Z,29.1015,-89.9782,20.56,11111222 
WAVCIS,ioos:station:WAVCIS:CSI09:1,2009-02-11T13:00:00Z,29.1015,-89.9782,21.58,11111222 
WAVCIS,ioos:station:WAVCIS:CSI09:1,2009-02-11T14:00:00Z,29.1015,-89.9782,20.45,11111222 
WAVCIS,ioos:station:WAVCIS:CSI09:1,2009-02-11T15:00:00Z,29.1015,-89.9782,20.14,11111222 
WAVCIS,ioos:station:WAVCIS:CSI09:1,2009-02-11T16:00:00Z,29.1015,-89.9782,19.57,11111222 
WAVCIS,ioos:station:WAVCIS:CSI09:1,2009-02-11T17:00:00Z,29.1015,-89.9782,18.38,11111222 
WAVCIS,ioos:station:WAVCIS:CSI09:1,2009-02-11T18:00:00Z,29.1015,-89.9782,17.47,11111222 
WAVCIS,ioos:station:WAVCIS:CSI09:1,2009-02-11T19:00:00Z,29.1015,-89.9782,17.53,11111222 
WAVCIS,ioos:station:WAVCIS:CSI09:1,2009-02-11T20:00:00Z,29.1015,-89.9782,17.64,11111222 
WAVCIS,ioos:station:WAVCIS:CSI09:1,2009-02-11T21:00:00Z,29.1015,-89.9782,17.14,11111222 
WAVCIS,ioos:station:WAVCIS:CSI09:1,2009-02-11T22:00:00Z,29.1015,-89.9782,16.77,11111222 
WAVCIS,ioos:station:WAVCIS:CSI09:1,2009-02-11T23:00:00Z,29.1015,-89.9782,16.9,11111222 
WAVCIS,ioos:station:WAVCIS:CSI09:1,2009-02-12T00:00:00Z,29.1015,-89.9782,16.83,11111222 
WAVCIS,ioos:station:WAVCIS:CSI09:1,2009-02-12T01:00:00Z,29.1015,-89.9782,16.56,11111222 
WAVCIS,ioos:station:WAVCIS:CSI09:1,2009-02-12T02:00:00Z,29.1015,-89.9782,16.66,11111222 
WAVCIS,ioos:station:WAVCIS:CSI09:1,2009-02-12T03:00:00Z,29.1015,-89.9782,16.29,11111222 
WAVCIS,ioos:station:WAVCIS:CSI09:1,2009-02-12T04:00:00Z,29.1015,-89.9782,15.99,11111222 